[[{"header":{"parameterUnit":"m.s-1","parameterCategory":1,"la1":30.2991,"la2":30.254,"lo1":-89.0895,"lo2":-89.0444,"dy":0.0017,"dx":0.0017,"nx":28,"ny":28,"refTime":"2025-01-16T03:00:00:Z","depth":0,"parameterNumber":2,"parameterNumberName":"U-component_of_WINDS"},"data":[0,0,0,0,0,0,0,0,0,0,0,0,0,0,0,0,0,0,0,0,0,0,0,0,0,0,0,0,0,0,0,0,0,0,0,0,0,0,0,0,0,0,0,0,0,0,0,0,0,0,0,0,0,0,0,0,0,0,1.6922,1.6922,0,1.7003,1.7004,1.7004,1.7002,1.7001,1.7,1.6999,1.7083,1.7086,1.7089,0,0,0,0,0,0,0,0,0,0,0,0,0,1.6766,1.6769,1.6921,1.6922,1.6923,1.7002,1.7004,1.7005,1.7002,1.7001,1.7,1.6998,1.7082,1.7086,1.709,0,0,0,0,0,0,0,0,0,0,0,0,0,1.6839,1.677,1.6921,1.6932,1.6934,1.7002,1.7004,1.7005,1.7003,1.7001,1.6999,1.6998,1.7081,1.7085,1.709,1.7154,0,0,1.7105,1.7107,0,0,0,0,0,0,0,0,1.6835,1.6845,1.6929,1.6931,1.6933,1.699,1.6979,1.7055,1.7003,1.6976,1.6999,1.6997,1.7054,1.7061,1.7079,1.7158,1.7161,1.7106,1.7109,1.7111,1.7112,0,0,0,0,0,0,0,1.683,1.6841,1.6954,1.693,1.6933,1.6933,1.6941,1.6994,1.7023,1.6979,1.6979,1.6988,1.7054,1.7075,1.7081,1.7163,1.7105,1.711,1.7113,1.7115,1.7299,1.73,0,0,0,0,0,0,1.6822,1.6837,1.6951,1.6956,1.6879,1.6937,1.6947,1.6974,1.7023,1.7029,1.699,1.6988,1.7067,1.7076,1.7084,1.7163,1.7111,1.7115,1.7118,1.7297,1.7299,1.7301,0,0,0,0,0,0,1.6819,1.6832,1.6948,1.6896,1.6911,1.6941,1.6972,1.6976,1.6997,1.7031,1.7036,1.7005,1.7066,1.7077,1.7137,1.7166,1.7117,1.7122,1.7294,1.7297,1.73,1.7321,0,0,0,0,0,0,1.6814,1.6831,1.6855,1.6897,1.6914,1.6999,1.6974,1.6979,1.7005,1.7004,1.7047,1.7053,1.7066,1.713,1.7142,1.7172,1.7126,1.7292,1.7296,1.7299,1.7318,1.7324,1.7329,0,0,0,0,0,1.6809,1.6858,1.6857,1.687,1.6945,1.7,1.701,1.7024,1.7007,1.7032,1.7055,1.7051,1.7161,1.7136,1.7149,1.7181,1.729,1.7295,1.7299,1.7315,1.7323,1.7329,0,0,0,0,0,0,1.6819,1.6864,1.6863,1.6927,1.696,1.7,1.7032,1.7031,1.707,1.7067,1.7083,1.7093,1.7152,1.7173,1.7144,1.7246,1.7223,1.7231,1.7231,1.7239,1.7244,1.7239,1.713,0,0,0,0,0,1.6829,1.687,1.6907,1.696,1.6976,1.7001,1.7026,1.7034,1.7068,1.7083,1.7109,1.7143,1.7186,1.7213,1.7254,1.732,1.733,1.7349,1.7355,1.736,1.7366,1.7404,1.7413,1.7315,1.7315,1.7315,0,0,1.685,1.6879,1.6904,1.6962,1.6989,1.7032,1.7013,1.7058,1.709,1.709,1.7147,1.7168,1.7207,1.7271,1.73,1.729,1.7395,1.7365,1.7369,1.7373,1.7409,1.7418,1.7427,1.7318,1.7318,1.7317,0,0,1.6909,1.6935,1.6983,1.701,1.705,1.7066,1.7077,1.7118,1.7131,1.7189,1.719,1.7228,1.73,1.7329,1.7353,1.7423,1.7422,1.7436,1.7467,1.7504,1.7512,1.7518,1.7545,1.7554,1.7442,1.7442,1.7442,0,1.693,1.6994,1.7007,1.7053,1.7079,1.708,1.7129,1.7154,1.7206,1.7224,1.7211,1.7303,1.7329,1.74,1.7417,1.7436,1.745,1.7432,1.7509,1.7516,1.7523,1.7548,1.7558,1.7444,1.7443,1.7443,1.7443,0,1.7018,1.7062,1.7096,1.7145,1.7175,1.7222,1.7243,1.7272,1.7277,1.7295,1.7355,1.7386,1.7434,1.7451,1.7457,1.7523,1.7515,1.7506,1.7483,1.7534,1.7558,1.7567,1.7446,1.7445,1.7445,1.7444,0,0,1.7087,1.7143,1.7156,1.7178,1.7223,1.7258,1.7305,1.7351,1.7376,1.7411,1.7452,1.7513,1.7505,1.7532,1.7541,1.7573,1.7628,1.756,1.7561,1.7572,1.7704,1.7711,1.7722,1.7627,1.7629,1.763,1.7701,0,1.7152,1.7236,1.7249,1.7323,1.7365,1.7366,1.7407,1.7439,1.7457,1.7496,1.7515,1.7559,1.7544,1.7561,1.7592,1.7615,1.7655,1.761,1.7666,1.7668,1.7657,1.7735,1.7743,1.7808,1.771,1.7712,1.7713,0,1.7239,1.7277,1.7355,1.7394,1.7412,1.7449,1.7493,1.7529,1.7566,1.7577,1.7607,1.7612,1.7662,1.7637,1.7706,1.7675,1.7699,1.7713,1.7716,1.7723,1.7694,1.7744,1.7829,1.7839,1.7728,1.7727,1.7726,0,1.7283,1.7353,1.7409,1.7429,1.7476,1.7502,1.7523,1.7558,1.7585,1.7623,1.7641,1.7685,1.7709,1.7743,1.776,1.774,1.7829,1.7804,1.784,1.7839,1.7859,1.7858,1.795,1.7873,1.7873,1.7872,1.7872,0,1.7355,1.7403,1.743,1.7464,1.7518,1.7533,1.7586,1.7606,1.7638,1.7677,1.768,1.7717,1.7737,1.7776,1.779,1.7846,1.7857,1.7867,1.7871,1.7868,1.7866,1.7884,1.788,1.7875,1.7875,1.7874,1.7874,0,1.7413,1.7433,1.7494,1.7534,1.7545,1.7583,1.7617,1.7651,1.7668,1.7718,1.773,1.7758,1.7805,1.7825,1.7883,1.7892,1.7956,1.7956,1.7944,1.7945,1.798,1.7977,1.8087,1.8103,1.8015,1.8015,1.8016,0,1.7458,1.7495,1.7539,1.7565,1.7587,1.7629,1.7656,1.7672,1.7701,1.7746,1.7775,1.7822,1.786,1.7935,1.7961,1.8005,1.8006,1.8042,1.8013,1.8009,1.8008,1.8006,1.801,1.8048,1.8048,1.8049,1.805,0,1.7537,1.7545,1.7584,1.7628,1.766,1.7695,1.7729,1.7751,1.7772,1.7805,1.7852,1.7882,1.7941,1.7988,1.8034,1.8056,1.8057,1.8058,1.8069,1.8067,1.8059,1.8065,1.796,1.8056,1.8055,1.8055,1.8055,1.8054,1.7591,1.7624,1.766,1.7704,1.7731,1.7763,1.7797,1.7818,1.7859,1.7908,1.7915,1.7966,1.8002,1.8064,1.8088,1.8129,1.812,1.8135,1.814,1.8143,1.8146,1.8052,1.8137,1.8137,1.8137,1.8137,1.8137,0,1.767,1.7693,1.7733,1.7781,1.7816,1.7813,1.785,1.788,1.7925,1.7959,1.7996,1.8052,1.8097,1.8126,1.8173,1.82,1.8201,1.8211,1.821,1.8215,1.8151,1.8137,1.8209,1.8209,1.8209,1.8209,1.8209,1.8209,1.7715,1.7772,1.7784,1.7854,1.7876,1.7927,1.7949,1.7978,1.8005,1.8067,1.8104,1.8123,1.8155,1.8204,1.8245,1.8253,1.827,1.8281,1.8288,1.8227,1.822,1.8213,1.82,1.8284,1.8284,1.8349,1.835,1.835]},{"header":{"parameterUnit":"m.s-1","parameterCategory":1,"la1":30.2991,"la2":30.254,"lo1":-89.0895,"lo2":-89.0444,"dy":0.0017,"dx":0.0017,"nx":28,"ny":28,"refTime":"2025-01-16T03:00:00:Z","depth":0,"parameterNumber":3,"parameterNumberName":"V-component_of_WINDS"},"data":[0,0,0,0,0,0,0,0,0,0,0,0,0,0,0,0,0,0,0,0,0,0,0,0,0,0,0,0,0,0,0,0,0,0,0,0,0,0,0,0,0,0,0,0,0,0,0,0,0,0,0,0,0,0,0,0,0,0,-0.7491,-0.7491,0,-0.7497,-0.7497,-0.7497,-0.7489,-0.7489,-0.7488,-0.7488,-0.7494,-0.7494,-0.7495,0,0,0,0,0,0,0,0,0,0,0,0,0,-0.7471,-0.7472,-0.7491,-0.7491,-0.7491,-0.7497,-0.7497,-0.7497,-0.7489,-0.7489,-0.7488,-0.7488,-0.7494,-0.7494,-0.7495,0,0,0,0,0,0,0,0,0,0,0,0,0,-0.7479,-0.7472,-0.7491,-0.7488,-0.7487,-0.7497,-0.7497,-0.7497,-0.7489,-0.7489,-0.7488,-0.7488,-0.7494,-0.7494,-0.7495,-0.7508,0,0,-0.7497,-0.7497,0,0,0,0,0,0,0,0,-0.7479,-0.748,-0.7488,-0.7488,-0.7488,-0.7492,-0.7492,-0.7501,-0.7489,-0.7488,-0.7488,-0.7488,-0.7494,-0.7494,-0.7496,-0.7508,-0.7508,-0.7497,-0.7497,-0.7498,-0.7498,0,0,0,0,0,0,0,-0.7478,-0.7479,-0.7493,-0.7488,-0.7488,-0.7486,-0.7486,-0.7494,-0.7493,-0.7488,-0.7488,-0.7489,-0.7493,-0.7496,-0.7496,-0.7508,-0.7497,-0.7497,-0.7498,-0.7498,-0.7531,-0.7532,0,0,0,0,0,0,-0.7478,-0.7479,-0.7493,-0.7494,-0.7482,-0.7487,-0.7487,-0.7491,-0.7493,-0.7493,-0.7489,-0.7488,-0.7495,-0.7496,-0.7497,-0.7512,-0.7498,-0.7498,-0.7498,-0.7531,-0.7531,-0.7532,0,0,0,0,0,0,-0.7478,-0.7479,-0.7493,-0.7486,-0.7488,-0.7487,-0.7492,-0.7491,-0.7494,-0.7494,-0.7494,-0.7492,-0.7494,-0.7496,-0.7505,-0.7512,-0.7498,-0.7499,-0.753,-0.7531,-0.7532,-0.7543,0,0,0,0,0,0,-0.7477,-0.7479,-0.7484,-0.7486,-0.7488,-0.7501,-0.7492,-0.7492,-0.7495,-0.7494,-0.7496,-0.7496,-0.7494,-0.7504,-0.7506,-0.7513,-0.75,-0.753,-0.753,-0.7531,-0.7542,-0.7544,-0.7545,0,0,0,0,0,-0.7476,-0.7487,-0.7484,-0.7486,-0.7494,-0.7502,-0.7503,-0.7501,-0.7495,-0.75,-0.7501,-0.7496,-0.7511,-0.7505,-0.7507,-0.7514,-0.7529,-0.753,-0.7531,-0.7541,-0.7543,-0.7545,0,0,0,0,0,0,-0.7485,-0.7487,-0.7484,-0.7496,-0.7499,-0.75,-0.7507,-0.7503,-0.7508,-0.7507,-0.7503,-0.7504,-0.7514,-0.7515,-0.7509,-0.7527,-0.7519,-0.7521,-0.7526,-0.7528,-0.753,-0.7529,-0.75,0,0,0,0,0,-0.7488,-0.7495,-0.7496,-0.7506,-0.7508,-0.7507,-0.751,-0.7508,-0.7511,-0.7512,-0.7513,-0.7516,-0.7521,-0.7525,-0.753,-0.7542,-0.7542,-0.7548,-0.7549,-0.7551,-0.7552,-0.7559,-0.7561,-0.7536,-0.7535,-0.7535,0,0,-0.7495,-0.7497,-0.7501,-0.7508,-0.751,-0.7516,-0.7508,-0.7515,-0.752,-0.7513,-0.7522,-0.7523,-0.7526,-0.7537,-0.7542,-0.7538,-0.756,-0.7552,-0.7554,-0.7554,-0.756,-0.7563,-0.7565,-0.7536,-0.7536,-0.7536,0,0,-0.7511,-0.7513,-0.7521,-0.7524,-0.7527,-0.7527,-0.7529,-0.7531,-0.7532,-0.7541,-0.7536,-0.7542,-0.7551,-0.7553,-0.7556,-0.7573,-0.7569,-0.7574,-0.7584,-0.7591,-0.7593,-0.7594,-0.7601,-0.7603,-0.7576,-0.7576,-0.7576,0,-0.7519,-0.7528,-0.7526,-0.7534,-0.7537,-0.7532,-0.754,-0.7543,-0.7548,-0.755,-0.7545,-0.7557,-0.7559,-0.757,-0.7575,-0.7577,-0.7579,-0.7574,-0.7593,-0.7594,-0.7596,-0.7602,-0.7604,-0.7576,-0.7576,-0.7576,-0.7576,0,-0.7538,-0.7545,-0.7551,-0.7556,-0.756,-0.7568,-0.7567,-0.7572,-0.7569,-0.757,-0.7579,-0.7581,-0.7586,-0.7589,-0.7587,-0.76,-0.7598,-0.7593,-0.7585,-0.7599,-0.7605,-0.7607,-0.7577,-0.7577,-0.7577,-0.7577,0,0,-0.7559,-0.7563,-0.7565,-0.7568,-0.7571,-0.7577,-0.7584,-0.759,-0.7594,-0.7597,-0.7604,-0.7612,-0.7608,-0.7611,-0.7609,-0.7615,-0.7628,-0.7609,-0.7609,-0.7613,-0.7643,-0.7647,-0.7649,-0.7626,-0.7626,-0.7626,-0.7643,0,-0.7574,-0.7588,-0.7587,-0.76,-0.7606,-0.7602,-0.7609,-0.7612,-0.7612,-0.7617,-0.7618,-0.7624,-0.7618,-0.7619,-0.7625,-0.7625,-0.7634,-0.7624,-0.7632,-0.7632,-0.7631,-0.7652,-0.7655,-0.7671,-0.7645,-0.7645,-0.7646,0,-0.7594,-0.7599,-0.7613,-0.7616,-0.7619,-0.7625,-0.763,-0.7635,-0.7638,-0.7638,-0.7642,-0.7639,-0.7647,-0.7639,-0.765,-0.7643,-0.7646,-0.7647,-0.7648,-0.7648,-0.7639,-0.7653,-0.7676,-0.7678,-0.7649,-0.7649,-0.7648,0,-0.7608,-0.7618,-0.7628,-0.763,-0.7633,-0.7638,-0.764,-0.7643,-0.7646,-0.7651,-0.7653,-0.7658,-0.7661,-0.7665,-0.7664,-0.7658,-0.7675,-0.7667,-0.7675,-0.7675,-0.7679,-0.7678,-0.7702,-0.7681,-0.7681,-0.7681,-0.7681,0,-0.7626,-0.7634,-0.7634,-0.764,-0.7649,-0.7648,-0.7657,-0.7659,-0.7661,-0.7667,-0.7664,-0.7669,-0.7667,-0.7673,-0.7672,-0.7681,-0.7683,-0.7683,-0.7682,-0.7683,-0.7683,-0.7685,-0.7684,-0.7681,-0.7681,-0.7681,-0.7681,0,-0.7642,-0.7643,-0.7653,-0.7656,-0.7657,-0.7664,-0.7666,-0.7672,-0.7672,-0.768,-0.7681,-0.7682,-0.7688,-0.7688,-0.7695,-0.7694,-0.7706,-0.7704,-0.7705,-0.7704,-0.7712,-0.7711,-0.7738,-0.7741,-0.7718,-0.7718,-0.7718,0,-0.7654,-0.766,-0.7664,-0.7668,-0.767,-0.7677,-0.768,-0.7679,-0.7683,-0.7688,-0.7693,-0.7699,-0.7704,-0.7714,-0.7715,-0.7721,-0.7719,-0.7728,-0.772,-0.772,-0.7719,-0.7719,-0.7719,-0.7729,-0.773,-0.773,-0.773,0,-0.7673,-0.7673,-0.7679,-0.7685,-0.7689,-0.7694,-0.7698,-0.7701,-0.77,-0.7705,-0.7712,-0.7716,-0.7723,-0.7729,-0.7735,-0.7736,-0.7733,-0.7733,-0.7735,-0.7736,-0.7736,-0.7736,-0.7709,-0.7732,-0.7732,-0.7732,-0.7732,-0.7732,-0.7688,-0.7694,-0.7697,-0.7704,-0.7707,-0.7711,-0.7716,-0.7717,-0.7723,-0.7729,-0.7728,-0.7736,-0.7739,-0.7746,-0.7748,-0.7754,-0.7751,-0.7754,-0.7755,-0.7756,-0.7757,-0.7735,-0.7755,-0.7755,-0.7755,-0.7755,-0.7755,0,-0.7707,-0.771,-0.7716,-0.7722,-0.7727,-0.7724,-0.7728,-0.7733,-0.7739,-0.7743,-0.7748,-0.7756,-0.7762,-0.7764,-0.7769,-0.7774,-0.7773,-0.7775,-0.7775,-0.7776,-0.7759,-0.7757,-0.7776,-0.7776,-0.7776,-0.7776,-0.7776,-0.7776,-0.7718,-0.7728,-0.7728,-0.774,-0.7742,-0.7749,-0.7752,-0.7756,-0.7759,-0.7768,-0.7773,-0.7774,-0.7777,-0.7783,-0.7789,-0.7789,-0.7791,-0.7795,-0.7794,-0.7779,-0.7777,-0.7775,-0.7772,-0.7795,-0.7795,-0.781,-0.781,-0.7811]}]]